Regional Weather Roundup
Issued by NWS Jackson, KY

Home | Current Version | Previous Version | Text Only | Print | Product List | Glossary Off
Versions: 1 2 3 4 5 6 7 8 9 10 11 12 13 14 15 16 17 18 19 20 21 22 23 24 25 26 27 28 29 30 31 32 33 34 35 36 37 38 39 40 41 42 43 44 45 46 47 48 49

000
ASUS43 KJKL 032010
RWRJKL

EAST KENTUCKY HOURLY WEATHER ROUNDUP
NATIONAL WEATHER SERVICE JACKSON KY
400 PM EDT THU SEP 03 2015

NOTE: "FAIR" INDICATES FEW OR NO CLOUDS BELOW 12,000 FEET WITH
NO SIGNIFICANT WEATHER AND/OR OBSTRUCTIONS TO VISIBILITY.

* THESE REPORTS ARE NOT UNDER NWS QUALITY CONTROL AND MAY NOT
  REPORT WEATHER SUCH AS PRECIPITATION AND FOG.

KYZ079-080-083-085-087-088-110-112-115-119-120-032100
...EASTERN KENTUCKY...

CITY           SKY/WX    TMP DP  RH WIND       PRES   REMARKS
JACKSON        MOSUNNY   86  67  52 VRB3      30.01F
LONDON         MOSUNNY   88  63  43 E5        30.00F
SOMERSET*      MOSUNNY   86  63  45 CALM      30.00F
MONTICELLO*    SUNNY     91  67  45 CALM      30.02F HX  94
MIDDLESBORO*   SUNNY     88  67  48 NE5       30.00F HX  91
HARLAN APT*      N/A     88  59  37 MISG      30.02F
HAZARD APT*    PTCLDY    88  68  51 NW7       30.00F HX  91
BLACK MTN*       N/A     77  63  61 NE5         N/A
PIKEVILLE APT* MOSUNNY   84  66  54 N5        30.01F
BIG SANDY*     CLEAR     85  68  55 CALM      29.99F
MOREHEAD APT*  LGT RAIN  90  63  40 W5        30.00F HX  90
$$

KYZ035-036-041-042-044-050-067-078-099-032100
...CENTRAL KENTUCKY...

CITY           SKY/WX    TMP DP  RH WIND       PRES   REMARKS
MT STERLING*   SUNNY     90  66  45 W3        30.01S HX  92
FLEMING/MASON* SUNNY     88  68  51 NW7       29.99F HX  91
DANVILLE*      MOSUNNY   88  63  42 E3        30.00F
RICHMOND*      SUNNY     90  61  37 W3        29.99F
LEXINGTON      SUNNY     92  63  38 CALM      29.99F HX  93
FRANKFORT      SUNNY     91  64  40 N5        29.97F HX  92
$$

KYZ091>093-OHZ055-061-077-WVZ005-015-034-035-042-032100
...SOUTHERN OHIO/WEST VIRGINIA...

CITY           SKY/WX    TMP DP  RH WIND       PRES   REMARKS
COVINGTON      MOSUNNY   90  64  42 CALM      29.98F HX  91
COLUMBUS       TSTM      75  70  83 W28G60    29.98R SQUALL  VSB 1/2
DAYTON         MOSUNNY   90  65  43 SW8       29.98F HX  92
WILMINGTON     SUNNY     88  66  48 W9        29.97F HX  90
HUNTINGTON     MOSUNNY   88  63  43 N8        29.96F
CHARLESTON     MOSUNNY   89  64  43 VRB5      29.97F HX  90
PINEVILLE*     MOSUNNY   87  69  54 MISG      30.06F HX  91
BECKLEY        MOSUNNY   81  65  58 VRB3      30.06F
BLUEFIELD      MOSUNNY   83  61  47 NW8       30.08F
$$

VAZ002-007-008-TNZ017-027-036-066-071-032100
...SOUTHWEST VIRGINIA/EAST TENNESSEE...

CITY           SKY/WX    TMP DP  RH WIND       PRES   REMARKS
WISE*          PTSUNNY   81  59  47 N8        30.09F
JONESVILLE*    CLEAR     90  63  40 N3        30.02F HX  90
ABINGDON*      MOSUNNY   86  60  41 CALM      30.04F
BRISTOL        MOSUNNY   88  65  46 N7        30.01F HX  90
KNOXVILLE      MOSUNNY   90  62  39 E7        29.96F HX  90
OAK RIDGE      SUNNY     91  64  40 VRB3      29.99F HX  92
CROSSVILLE     SUNNY     87  60  40 N6        30.04F
NASHVILLE      PTSUNNY   95  62  33 VRB3      29.97F HX  96
$$

...KEY TO REMARKS...
VSB - VISIBILITY IN MILES
WCI - WIND CHILL INDEX
HX  - HEAT INDEX

$$


USA.gov is the U.S. government's official web portal to all federal, state and local government web resources and services.